Flag for Germany Weather past 2 weeks in Darmstadt, Hesse, Germany

Now
61 °F

Clear.


Feels Like: 61 °F
Forecast: 49 / 68 °F
Wind: 3 mph from Southwest

Location: Frankfurt-M-Flughafen Airport

Current Time: Sep 2, 2014 at 1:35:19 AM

Latest Report: Sep 2, 2014 at 12:50 AM


Visibility: 10 mi

Pressure: 30.15 "Hg

Humidity: 77%

Dew point: 54 °F

Location of DarmstadtLocation

Historic Weather in Darmstadt — Graph

°F

Darmstadt temperature yesterday

Maximum temperature yesterday: 68 °F (at 4:20 PM)
Minimum temperature yesterday: 52 °F (at 3:50 AM)
Average temperature yesterday: 60 °F

Past Weeks' High & Low Weather Summary

 TemperatureHumidityPressure
High75 °F (Aug 28, 3:20 PM)100% (Aug 19, 12:20 AM)30.15 "Hg (Aug 19, 12:20 AM)
Low46 °F (Aug 20, 5:20 AM)33% (Aug 22, 4:50 PM)29.65 "Hg (Aug 26, 5:20 AM)
Average60 °F78%29.97 "Hg
* Reported Aug 18 12:20 AM — Sep 2 12:20 AM, Darmstadt, Weather by CustomWeather, © 2014

Note: Actual official high and low records may vary slightly from our data, if they occured in-between our weather recording intervals... More about our weather records

Advertising

Darmstadt weather history for previous 24 hours

 ConditionsComfort  
Time TempWeatherWind HumidityBarometerVisibility
12:20 AM
Sep 2
61 °FClear.5 mph72%30.15 "Hg10 mi
11:50 PM
Sep 1
61 °FClear.6 mph72%30.15 "Hg10 mi
11:20 PM63 °FClear.6 mph68%30.15 "Hg10 mi
10:20 PM63 °FPassing clouds.5 mph68%30.15 "HgN/A
9:50 PM63 °FPassing clouds.6 mph68%30.15 "HgN/A
9:20 PM63 °FPassing clouds.7 mph68%30.15 "HgN/A
8:50 PM63 °FPartly sunny.6 mph68%30.15 "HgN/A
8:20 PM63 °FPartly sunny.8 mph68%30.12 "HgN/A
7:50 PM63 °FPartly sunny.7 mph68%30.12 "HgN/A
7:20 PM64 °FPartly sunny.8 mph64%30.12 "HgN/A
6:50 PM64 °FPartly sunny.9 mph60%30.12 "HgN/A
6:20 PM64 °FPartly sunny.7 mph60%30.12 "HgN/A
5:50 PM66 °FPartly sunny.7 mph60%30.12 "HgN/A
5:20 PM66 °FBroken clouds.7 mph56%30.12 "HgN/A
4:50 PM68 °FBroken clouds.5 mph56%30.12 "HgN/A
4:20 PM68 °FScattered clouds.6 mph53%30.12 "HgN/A
3:50 PM66 °FScattered clouds.8 mph56%30.12 "HgN/A
3:20 PM64 °FScattered clouds.10 mph56%30.12 "HgN/A
2:50 PM66 °FScattered clouds.9 mph60%30.12 "HgN/A
2:20 PM66 °FPassing clouds.6 mph60%30.12 "HgN/A
1:50 PM63 °FScattered clouds.5 mph68%30.12 "HgN/A
1:20 PM63 °FScattered clouds.6 mph73%30.15 "HgN/A
12:50 PM61 °FBroken clouds.8 mph72%30.15 "HgN/A
12:20 PM61 °FBroken clouds.7 mph72%30.15 "HgN/A
11:50 AM63 °FBroken clouds.3 mph73%30.12 "HgN/A
11:20 AM61 °FBroken clouds.3 mph72%30.12 "HgN/A
10:50 AM63 °FPartly sunny.2 mph68%30.12 "HgN/A
10:20 AM63 °FPassing clouds.3 mph68%30.12 "HgN/A
9:50 AM61 °FPassing clouds.2 mph72%30.12 "HgN/A
9:20 AM59 °FPassing clouds.5 mph77%30.12 "HgN/A
8:50 AM57 °FPartly sunny.8 mph82%30.12 "HgN/A
8:20 AM57 °FPartly sunny.7 mph82%30.09 "HgN/A
7:50 AM57 °FBroken clouds.7 mph82%30.09 "HgN/A
7:20 AM55 °FPassing clouds.2 mph88%30.09 "HgN/A
6:50 AM55 °FPassing clouds.3 mph88%30.09 "HgN/A
6:20 AM54 °FLight fog.6 mph94%30.07 "HgN/A
5:50 AM54 °FPassing clouds.6 mph94%30.07 "HgN/A
5:20 AM54 °FPassing clouds.2 mph94%30.07 "HgN/A
4:50 AM52 °FClear.3 mph94%30.07 "Hg10 mi
4:20 AM54 °FClear.6 mph88%30.07 "Hg10 mi
3:50 AM52 °FPassing clouds.1 mph94%30.07 "HgN/A
3:20 AM54 °FPassing clouds.3 mph94%30.07 "HgN/A
2:50 AM55 °FClear.6 mph88%30.07 "Hg10 mi
2:20 AM54 °FClear.7 mph94%30.04 "Hg10 mi
1:50 AM54 °FClear.1 mph94%30.04 "Hg10 mi
1:20 AM55 °FClear.6 mph88%30.04 "Hg10 mi
Weather by CustomWeather, © 2014

See weather overviewHow to use our weather pages